Regional Weather Roundup
Issued by NWS Sterling, VA

Home | Current Version | Previous Version | Graphics & Text | Print | Product List | Glossary On
Versions: 1 2 3 4 5 6 7 8 9 10 11 12 13 14 15 16 17 18 19 20 21 22 23 24 25 26 27 28 29 30 31 32 33 34 35 36 37 38 39 40 41 42 43 44 45 46 47 48 49 50
000
ASUS41 KLWX 311810
RWRLWX

REGIONAL WEATHER ROUNDUP
NATIONAL WEATHER SERVICE BALTIMORE MD/WASHINGTON DC
100 PM EST SAT JAN 31 2015

Note: "FAIR" indicates few or no clouds below 12,000 feet
with no significant weather and/or obstructions to visibility.
 TC=TEMPERATURE CELSIUS

 * =Non NWS site. Station does not report precipitation (e.g. rain,
    snow, etc.), thunder, or fog.

DCZ001-MDZ009-015-VAZ040>042-051-053>054-311900-
WASHINGTON METRO

CITY           SKY/WX    TMP DP  RH WIND       PRES   REMARKS
WASHINGTON NAT MOSUNNY   31   2  29 NW14G21   30.32F WCI  21
DULLES         SUNNY     28   7  41 NW13      30.30F WCI  17
ANDREWS AFB    SUNNY     27   3  35 W13G22    30.28F WCI  17
FT BELVOIR     SUNNY     29   4  34 NW9G17    30.32F WCI  21
QUANTICO       SUNNY     33   5  30 NW10G17   30.33F WCI  25
COLLEGE PARK*  SUNNY     30   3  31 W12G20    30.30F WCI  21
LEESBURG*      SUNNY     30  12  47 N9        30.30F WCI  22
MANASSAS*      SUNNY     28   9  43 N10G21    30.31F WCI  19
GAITHERSBURG*  SUNNY     25   7  46 NW8G22    30.31F WCI  16

$$

MDZ006>007-011-014-311900-
BALTIMORE METRO

CITY           SKY/WX    TMP DP  RH WIND       PRES   REMARKS
BWI AIRPORT    SUNNY     28   4  35 NW15G24   30.28F WCI  16
MD SCIENCE CTR   N/A     27   4  37 MISG      30.28F
MARTIN STATE   SUNNY    N/A N/A N/A W16G22    30.30F
ANNAPOLIS      SUNNY     27   7  42 NW16G22   30.28F WCI  15
FORT MEADE*    SUNNY     30   9  40 W13G18    30.31F WCI  20

$$

MDZ012-015-019>023-311900-
MARYLAND EASTERN SHORE

CITY           SKY/WX    TMP DP  RH WIND       PRES   REMARKS
OCEAN CITY     SUNNY     30   4  33 NW17G28   30.23F WCI  18
SALISBURY      SUNNY     32   6  33 NW16      30.25F WCI  21
BAY BRIDGE AP*   N/A     28   7  40 NW9       30.29F WCI  20
CAMBRIDGE*     SUNNY     32   9  37 NW14G22   30.28F WCI  22
EASTON*        SUNNY     30   9  40 NW15G21   30.32F WCI  19

$$

MDZ017>025-311900-
SOUTHERN MARYLAND

CITY           SKY/WX    TMP DP  RH WIND       PRES   REMARKS
PATUXENT RIVER SUNNY     31   4  31 NW16      30.29F WCI  20
ST INIGOES     NOT AVBL
LEONARDTOWN*   SUNNY     32   0  25 NW12G20   30.30F WCI  23

$$

MDZ003>005-311900-
NORTH CENTRAL MARYLAND

CITY           SKY/WX    TMP DP  RH WIND       PRES   REMARKS
FREDERICK*     SUNNY     28   3  34 NW10      30.33  WCI  19
HAGERSTOWN APT SUNNY     24   4  42 W10       30.26F WCI  14
WESTMINSTER*   SUNNY     23   5  46 NW14      30.24F WCI  11

$$

MDZ501>502-311900-
WESTERN MARYLAND

CITY           SKY/WX    TMP DP  RH WIND       PRES   REMARKS
OAKLAND*       SUNNY     18  10  73 W12G18    30.14F WCI   5
CUMBERLAND*    NOT AVBL

$$

VAZ025>031-311900-
SHENANDOAH VALLEY

CITY           SKY/WX    TMP DP  RH WIND       PRES   REMARKS
WINCHESTER*    SUNNY     32   9  37 NW8       30.26F WCI  25
FRONT ROYAL*   FAIR      32   9  37 NW5       30.25F
LURAY*         FAIR      36   5  27 SW6       30.24F
NEW MARKET*    FAIR      32   6  32 SE5       30.25F
STAUNTON*      SUNNY     33   1  25 N3        30.25F
WAYNESBORO*    FAIR      35  -1  21 CALM      30.22F

$$

WVZ021-048>050-054>055-311900-
EASTERN WEST VIRGINIA PANHANDLE

CITY           SKY/WX    TMP DP  RH WIND       PRES   REMARKS
MARTINSBURG    SUNNY     29   7  39 W9G18     30.28F WCI  20
PETERSBURG*    SUNNY     32   2  28 E5        30.26F

$$

VAZ036>039-050-311900-
CENTRAL FOOTHILLS

CITY           SKY/WX    TMP DP  RH WIND       PRES   REMARKS
CHARLOTTESVILL SUNNY     37   0  21 VRB3      30.26F
CULPEPER*      SUNNY     34   3  27 CALM      30.29F
ORANGE*        SUNNY     36   5  27 CALM      30.29F
GORDONSVILLE*  FAIR      36   1  22 W3        30.27F
WARRENTON*     FAIR      35  14  42 W5        30.28F

$$

VAZ055>057-311900-
NORTH AND CENTRAL PIEDMONT

CITY           SKY/WX    TMP DP  RH WIND       PRES   REMARKS
FREDERICKSBRG* SUNNY     35   3  26 W5        30.30F
STAFFORD*      SUNNY     32   1  27 CALM      30.35F

$$

NCZ024-NYZ072-PAZ021-071-VAZ022-071-311900-
OTHER REGIONAL OBSERVATIONS

CITY           SKY/WX    TMP DP  RH WIND       PRES   REMARKS
NEW YORK CITY  SUNNY     23  -3  32 VRB6G23   30.12F
PHILADELPHIA   SUNNY     26   1  34 NW17      30.23F WCI  13
PITTSBURGH     PTSUNNY   23  13  65 W7        30.28F
ROANOKE        MOSUNNY   43  -3  14 W10       30.28F
RICHMOND       MOSUNNY   37   4  25 W6        30.31F
RALEIGH        MOSUNNY   43   1  17 VRB6      30.34F

$$

ANZ530>537-311900-
MARINE OBSERVATIONS

STATION/POSITION TIME  TEMP    WIND        PRES
                       AIR SEA DIR/SP/G
                 (UTC) (F)     (DEG/KT/KT) (MB)
THOMAS PT LIGHT  1800   26 34  300/ 11/ 13 1026.4F
BALT KEY BRIDGE  1800   25     270/ 13/ 16 1025.7F
COVE POINT       1800   26     350/ 15/ 18 1025.7F
LEWISETTA        1800   28 33  330/ 17/ 21 1026.2S
SOLOMONS ISLAND  1800      36                N/A
PINEY POINT      1800          320/ 18/ 21   N/A

$$



USA.gov is the U.S. government's official web portal to all federal, state and local government web resources and services.